Regional Weather Roundup
Issued by NWS

Home | Current Version | Previous Version | Graphics & Text | Print | Product List | Glossary On
Versions: 1 2 3 4 5 6 7 8 9 10 11 12 13 14 15 16 17 18 19 20 21 22 23 24 25 26 27 28 29 30 31 32 33 34 35 36 37 38 39 40 41 42 43 44 45 46 47 48 49 50
000
ASUS43 KIND 251009
RWRIN

WEATHER ROUNDUP FOR INDIANA
NATIONAL WEATHER SERVICE INDIANAPOLIS IN
500 AM EST SUN FEB 25 2018

NOTE: "FAIR" INDICATES FEW OR NO CLOUDS BELOW 12,000 FEET WITH NO
SIGNIFICANT WEATHER AND/OR OBSTRUCTIONS TO VISIBILITY.

* - STATION DOES NOT REPORT WEATHER SUCH AS PRECIPITATION OR FOG.

+ - STATION NOT QUALITY CONTROLLED BY THE NATIONAL WEATHER SERVICE.
    USE DATA WITH CAUTION...ESPECIALLY DEWPOINT AND RELATIVE
    HUMIDITY OBSERVATIONS.

INZ001>003-010>013-019-020-251100-
NORTHWEST INDIANA

CITY           SKY/WX    TMP DP  RH WIND       PRES   REMARKS
GARY /AIRPORT/ CLOUDY    38  31  77 W20G26    29.71R WCI  27
LA PORTE +     CLOUDY    36  31  82 W21G30    29.70R WCI  25
MONTICELLO +   CLOUDY    38  32  79 W20G31    29.77R WCI  28
RENSSELAER +   CLOUDY    36  30  80 W25G35    29.77R WCI  23
VALPARAISO     CLOUDY    37  31  78 W23G30    29.72R WCI  26

$$

LMZ046-743>745-251100-
SOUTHERN LAKE MICHIGAN

STATION/POSITION TIME  TEMP    WIND        PRES    WAVE
                       AIR SEA DIR/SP/G            HT
                 (UTC) (F)     (DEG/KT/KT) (MB)    (FT)
BURNS HARBOR     0940   37     250/ 27/ 32 1005.8R
MICHIGAN CITY    0940   36     230/ 38/ 43   N/A

$$

INZ004-005-014>016-021>024-251100-
NORTH CENTRAL INDIANA

CITY           SKY/WX    TMP DP  RH WIND       PRES   REMARKS
GOSHEN         CLOUDY    42  36  79 W31G41    29.66R
LOGANSPORT +   CLOUDY    37  34  87 W38G47    29.77R WCI  24
PERU/GRISSOM   CLOUDY    41  41  99 W31G39    29.74R
ROCHESTER +    CLOUDY    41  34  75 W17G33    29.75R
SOUTH BEND     CLOUDY    38  33  82 W24G30    29.67R WCI  27
WARSAW +       CLOUDY    39  34  81 E28G39    29.69R WCI  28

$$

INZ006>009-017-018-025>027-251100-
NORTHEAST INDIANA

CITY           SKY/WX    TMP DP  RH WIND       PRES   REMARKS
AUBURN +       CLOUDY    46  41  81 W17G36    29.64R
FORT WAYNE     CLOUDY    47  40  76 W33G44    29.66R
HUNTINGTON +   CLOUDY    43  36  77 W29G40    29.71R
KENDALLVILLE + CLOUDY    45  40  82 W32G43    29.62R

$$

INZ028-029-035-036-043>045-051>053-251100-
WEST CENTRAL INDIANA

CITY           SKY/WX    TMP DP  RH WIND       PRES   REMARKS
CRAWFORDSVL +  MOCLDY    37  32  83 W21G38      N/A  WCI  26
GREENCASTLE +  CLOUDY    41  32  70 W16G28    29.85R
LAFAYETTE      CLOUDY    38  32  79 W18G29    29.80R WCI  28
TERRE HAUTE    CLOUDY    42  35  76 W15G21    29.88R

$$

INZ030>032-037>040-046>048-054>057-064-065-251100-
CENTRAL INDIANA

CITY           SKY/WX    TMP DP  RH WIND       PRES   REMARKS
FISHERS *+     CLOUDY    43  41  93 W16G31    29.80R
FRANKFORT +    CLOUDY    41  37  83 W28G38    29.82R
GREENWOOD *+   MOCLDY    43 -46   2 W21G32    29.82R
INDIANAPOLIS   CLOUDY    43  36  76 W22G31    29.82R
-EAGLE CREEK   CLOUDY    45  35  68 W17G35    29.80R
KOKOMO +       CLOUDY    42  36  79 W30G39    29.76R
MARION +       CLOUDY    44  38  79 W32G39    29.76R
MT COMFORT *+  CLOUDY    43  41  93 W25G37    29.80R
SHELBYVILLE    CLOUDY    47  37  68 W24G35    29.80R
ZIONSVILLE +   CLOUDY    41  35  77 W25G38    29.80R

$$

INZ033-034-041-042-049-050-058-059-251100-
EAST CENTRAL INDIANA

CITY           SKY/WX    TMP DP  RH WIND       PRES   REMARKS
MUNCIE         FAIR      47  39  74 W28G39    29.75R
RICHMOND +     CLOUDY    48  46  93 W28       29.76R

$$

INZ060-061-067>069-081>083-085>088-251100-
SOUTHWEST INDIANA

CITY           SKY/WX    TMP DP  RH WIND       PRES   REMARKS
EVANSVILLE     FAIR      46  38  73 W13G20    29.95R
HUNTINGBURG +  FAIR      47  39  74 NW23G30   29.92R
WASHINGTON +   CLOUDY    44  34  67 W17G24    29.92R

$$

INZ062-063-066-070>080-084-089>092-251100-
SOUTH CENTRAL AND SOUTHEAST INDIANA

CITY           SKY/WX    TMP DP  RH WIND       PRES   REMARKS
BATESVILLE +   CLOUDY    50  50 100 MISG      29.78R
BEDFORD +      FAIR      46  36  66 W10G28    29.86R
BLOOMINGTON    FAIR      45  36  70 W14G24    29.86R
FRENCH LICK *+ FAIR      45  32  61 W15G26    29.90R
MADISON *+     CLOUDY    54  46  76 W16G25    29.84R
NORTH VERNON + CLOUDY    52  45  76 W17G33    29.80R
SEYMOUR +      CLOUDY    50  43  76 W23G30    29.84R

$$





USA.gov is the U.S. government's official web portal to all federal, state and local government web resources and services.